Weather Roundup
Issued by NWS

Home | Current Version | Previous Version | Graphics & Text | Print | Product List | Glossary Off
Versions: 1 2 3 4 5 6 7 8 9 10 11 12 13 14 15 16 17 18 19 20 21 22 23 24 25 26 27 28 29 30 31 32 33 34 35 36 37 38 39 40 41 42 43 44 45 46 47 48 49 50

000
NZUS93 KARX 260659
HRRWXR

CURRENT HOURLY OBSERVATIONS ACROSS
MUCH OF THE UPPER MISSISSIPPI VALLEY
NATIONAL WEATHER SERVICE LA CROSSE WI
200 AM CDT TUE MAY 26 2015


...SOUTHEAST MINNESOTA...


CITY           SKY/WX    TMP DP  RH WIND       PRES   REMARKS
ROCHESTER      CLOUDY    62  57  83 S13       29.84S
ROCHESTER/MAYO CLOUDY    64  58  83 S12G29    29.85R
WINONA         LGT RAIN  70  61  73 SW12G25   29.84R
AUSTIN         CLOUDY    63  57  82 CALM      29.83F
ALBERT LEA     MOCLDY    64  55  72 S6        29.81F
DODGE CENTER   MOCLDY    63  61  94 S10       29.83R
PRESTON        LGT RAIN  61  55  82 CALM      29.82F
OWATONNA       MOCLDY    59  57  94 CALM      29.80F
FARIBAULT        N/A     59  57  94 CALM      29.81S FOG
$$

...ELSEWHERE IN MINNESOTA...


CITY           SKY/WX    TMP DP  RH WIND       PRES   REMARKS
MINNEAPOLIS    MOCLDY    62  57  83 CALM      29.79R
INTNL FALLS    MOCLDY    51  50  96 CALM      29.85R
DULUTH         DRIZZLE   53  51  93 NE5       29.80F FOG
RED WING       MOCLDY    57  57 100 CALM      29.80R FOG
REDWOOD FALLS  PTCLDY    55  53  93 NW7       29.79F
MANKATO        PTCLDY    61  55  82 NW5       29.80S
WORTHINGTON    CLOUDY    55  52  88 NE6       29.80F
FAIRMONT       MOCLDY    61  55  82 NW6       29.79S
$$

...SOUTHWEST WISCONSIN...


CITY           SKY/WX    TMP DP  RH WIND       PRES   REMARKS
LA CROSSE      RAIN      68  61  78 SW22G30   29.82F
PRAIRIE DU CHI LGT RAIN  65  57  77 W12G28    29.88R
BOSCOBEL       PTCLDY    69  62  78 SW10G17   29.86S
LONE ROCK      NOT AVBL
PLATTEVILLE    MOCLDY    65  62  89 S6        29.87F
FORT MC COY    CLOUDY    64  59  84 CALM      29.85R
VIROQUA        PTSUNNY   67  65  92 S13       29.87R
WIS DELLS      CLEAR     66  59  79 S5        29.86S
$$

...ELSEWHERE IN WISCONSIN...


CITY           SKY/WX    TMP DP  RH WIND       PRES   REMARKS
MILWAUKEE      PTCLDY    68  59  73 SW10      29.91R
MADISON        CLEAR     67  60  78 S6        29.87S
GREEN BAY      PTCLDY    67  61  81 SW8       29.86R
EAU CLAIRE     PTCLDY    57  57 100 S3        29.80R FOG
BLACK RVR FLS  FAIR      61  61 100 SW5       29.82S
MEDFORD        CLEAR     57  57  99 S6        29.83R
WAUSAU         CLEAR     61  60  97 SW6       29.82S
WIS RAPIDS     PTCLDY    64  60  87 SW5       29.85R
MARSHFIELD     PTCLDY    64  60  87 S9        29.83R
RICE LAKE      PTCLDY    59  58  95 CALM      29.81R FOG
$$

...NORTHEAST IOWA...


CITY           SKY/WX    TMP DP  RH WIND       PRES   REMARKS
DECORAH        CLOUDY    63  61  94 VRB5      29.86F
MASON CITY     MOCLDY    59  56  89 N8        29.81F
CHARLES CITY   CLOUDY    61  61 100 SE8       29.81F
OELWEIN        MOCLDY    61  59  94 NE6       29.86F
$$

...ELSEWHERE IN IOWA...


CITY           SKY/WX    TMP DP  RH WIND       PRES   REMARKS
DES MOINES     CLOUDY    62  59  90 CALM      29.79F
IOWA CITY      MOCLDY    69  64  84 S5        29.87R
FORT DODGE     MOCLDY    57  54  88 CALM      29.78F
$$

...NORTHERN ILLINOIS...


CITY           SKY/WX    TMP DP  RH WIND       PRES   REMARKS
CHICAGO-OHARE  PTCLDY    70  63  78 S12       29.93S
CHICAGO-MIDWAY PTCLDY    72  65  78 S12       29.93F
MOLINE         CLEAR     71  65  81 S10       29.86F
ROCKFORD       PTCLDY    69  62  78 S7        29.92S
PEORIA         PTCLDY    71  66  84 S15       29.92S
$$

NOTE: "FAIR" INDICATES FEW OR NO CLOUDS BELOW 12,000 FEET WITH NO
SIGNIFICANT WEATHER AND/OR OBSTRUCTIONS TO VISIBILITY. WIND
SPEEDS ARE IN MILES-PER-HOUR.



USA.gov is the U.S. government's official web portal to all federal, state and local government web resources and services.